Flag for Central African Republic Weather past 2 weeks in Bambari, Central African Republic

Now
77 °F

Clear.


Feels Like: 78 °F
Forecast: 68 / 88 °F
Wind: No wind

Location: Bangui Airport

Current Time: Aug 27, 2015 at 11:20:43 PM

Latest Report: Aug 27, 2015 at 10:00 PM


Visibility: 4 mi

Pressure: 29.89 "Hg

Humidity: 94%

Dew point: 75 °F

Location of BambariLocation

Historic Weather in Bambari — Graph

°F

Bambari temperature yesterday

Maximum temperature yesterday: 90 °F (at 2:00 PM)
Minimum temperature yesterday: 72 °F (at 8:00 PM)
Average temperature yesterday: 78 °F

Past Weeks' High & Low Weather Summary

 TemperatureHumidityPressure
High91 °F (Aug 22, 2:00 PM)100% (Aug 21, 9:00 PM)29.98 "Hg (Aug 21, 9:00 PM)
Low70 °F (Aug 22, 3:00 AM)59% (Aug 22, 2:00 PM)29.74 "Hg (Aug 22, 5:00 PM)
Average78 °F87%29.88 "Hg
* Reported Aug 21 5:00 PM — Aug 27 10:00 PM, Bambari, Weather by CustomWeather, © 2015

Note: Actual official high and low records may vary slightly from our data, if they occured in-between our weather recording intervals... More about our weather records

Advertising

Bambari weather history for previous 24 hours

 ConditionsComfort  
Time TempWeatherWind HumidityBarometerVisibility
10:00 PM
Thu, Aug 27
77 °FClear.No wind94%29.89 "Hg4 mi
9:00 PM79 °FClear.N/A89%29.86 "HgN/A
8:00 PM77 °FClear.2 mph94%29.83 "Hg4 mi
7:00 PM79 °FClear.2 mph89%29.80 "Hg4 mi
6:00 PM84 °FPassing clouds.2 mph74%29.77 "HgN/A
5:00 PM88 °FPassing clouds.1 mph62%29.77 "HgN/A
4:00 PM90 °FScattered clouds.1 mph59%29.77 "HgN/A
3:00 PM90 °FScattered clouds.No wind59%29.80 "HgN/A
2:00 PM86 °FScattered clouds.3 mph59%29.83 "HgN/A
1:00 PM86 °FScattered clouds.2 mph66%29.86 "HgN/A
12:00 PM82 °FScattered clouds.3 mph74%29.89 "HgN/A
11:00 AM81 °FScattered clouds.1 mph79%29.92 "HgN/A
10:00 AM79 °FScattered clouds.2 mph84%29.92 "HgN/A
9:00 AM79 °FScattered clouds.1 mph84%29.92 "Hg5 mi
8:00 AM73 °FScattered clouds.No wind100%29.92 "Hg4 mi
7:00 AM72 °FScattered clouds.No wind100%29.89 "Hg1 mi
6:00 AM72 °FScattered clouds.No wind100%29.86 "Hg1 mi
5:00 AM72 °FClear.1 mph100%29.86 "Hg10 mi
4:00 AM72 °FClear.No wind100%29.86 "Hg10 mi
3:00 AM72 °FClear.No wind100%29.86 "Hg10 mi
2:00 AM72 °FClear.1 mph100%29.86 "Hg10 mi
1:00 AM73 °FClear.No wind94%29.89 "Hg5 mi
12:00 AM73 °FClear.2 mph94%29.89 "Hg5 mi
11:00 PM
Wed, Aug 26
73 °FThunderstorms. Passing clouds.2 mph94%29.95 "Hg5 mi
Weather by CustomWeather, © 2015

See weather overviewHow to use our weather pages